Regional Weather Roundup
Issued by NWS

Home | Current Version | Previous Version | Text Only | Print | Product List | Glossary Off
Versions: 1 2 3 4 5 6 7 8 9 10 11 12 13 14 15 16 17 18 19 20 21 22 23 24 25 26 27 28 29 30 31 32 33 34 35 36 37 38 39 40 41 42 43 44 45 46 47 48 49 50

000
ASUS43 KDMX 272103
RWRIA

WEATHER ROUNDUP FOR IOWA
NATIONAL WEATHER SERVICE DES MOINES IA
400 PM CDT SAT AUG 27 2016

NOTE: "FAIR" INDICATES FEW OR NO CLOUDS BELOW 12,000 FEET WITH NO
SIGNIFICANT WEATHER AND/OR OBSTRUCTIONS TO VISIBILITY.

* - THESE STATIONS ARE NOT NWS STATIONS...THUS NOT UNDER NWS
QUALITY CONTROL.  THEY ALSO DO NOT REPORT WEATHER SUCH
AS PRECIPITATION OR FOG.

IAZ001>003-012>014-020>022-031>034-043>046-272200-
   NORTHWEST IOWA

CITY           SKY/WX    TMP DP  RH WIND       PRES   REMARKS
CARROLL *      PTSUNNY   77  66  69 W7        30.01F
CHEROKEE *     PTSUNNY   76  66  72 SW6       30.00F
DENISON *      MOSUNNY   79  66  65 SW6       29.99F HX  81
LE MARS *      PTSUNNY   77  64  65 S9        30.00F
ORANGE CITY *  MOSUNNY   73  63  68 SW5       30.01S
SHELDON *      CLOUDY    73  64  73 SW8       30.00S
SIOUX CITY     SUNNY     78  66  66 SW8       29.99F HX  80
SPENCER        CLOUDY    73  63  70 SW7       30.01F
STORM LAKE *     N/A     77  66  69 SW8       30.02F
$$

IAZ055>058-069>071-079>083-090>094-272200-
   SOUTHWEST IOWA

CITY           SKY/WX    TMP DP  RH WIND       PRES   REMARKS
ATLANTIC *     PTSUNNY   81  68  65 S6G12     30.01S HX  83
AUDUBON *      MOSUNNY   79  70  73 S5        30.02F HX  81
CLARINDA *       N/A     82  70  65 MISG      30.02F HX  86
COUNCIL BLFS * MOSUNNY   81  66  61 SW7       30.00F HX  83
CRESTON *      MOSUNNY   79  68  69 SW3       30.03F HX  81
HARLAN  *      PTSUNNY   79  68  69 SW7       30.04F HX  81
LAMONI         MOSUNNY   81  70  69 SW7       30.02S HX  84
RED OAK *      PTSUNNY   81  70  69 CALM      30.01F HX  84
SHENANDOAH *   SUNNY     81 -31   1 CALM      30.00F
$$

IAZ047>049-059>061-072>074-084-272200-
   CENTRAL IOWA

CITY           SKY/WX    TMP DP  RH WIND       PRES   REMARKS
AMES           CLOUDY    75  70  84 W6        30.01F
ANKENY *         N/A    N/A N/A N/A MISG        N/A
BOONE *        CLOUDY    73  68  83 S7        30.01F
CHARITON *       N/A     81  70  69 MISG      30.00F HX  84
DES MOINES     MOSUNNY   80  69  69 VRB3      30.00S HX  83
GRINNELL*      MOSUNNY   78  68  70 W7        30.02F HX  80
KNOXVILLE *    MOSUNNY   79  68  69 CALM      29.99F HX  81
MARSHALLTOWN   CLOUDY    75  69  81 W6        30.01F
NEWTON *       PTSUNNY   79  70  73 VRB3      30.00F HX  81
PERRY *        CLOUDY    76  70  82 SW3       30.01F
$$

IAZ004>006-015-016-023>025-035-036-272200-
   NORTH CENTRAL IOWA

CITY           SKY/WX    TMP DP  RH WIND       PRES   REMARKS
ALGONA *       CLOUDY    73  66  78 W7        30.02S
ESTHERVILLE    CLOUDY    71  65  81 W12       30.01S
FORT DODGE *   PTSUNNY   77  68  73 S7        30.01F
MASON CITY     CLOUDY    74  65  73 W10       30.03S
FOREST CITY *    N/A    N/A N/A N/A MISG        N/A
WEBSTER CITY * CLOUDY    75  68  78 SW9       30.00S
IOWA FALLS *   PTSUNNY   77  67  71 SW5       30.02F
$$

IAZ007>011-017>019-026>030-037>042-050>054-066-272200-
   NORTHEAST IOWA

CITY           SKY/WX    TMP DP  RH WIND       PRES   REMARKS
CEDAR RAPIDS   MOSUNNY   79  71  76 SW7       30.00F HX  82
CHARLES CITY * CLOUDY    73  68  83 VRB5      30.02F
CLINTON *      PTSUNNY   81  71  71 SW7       30.01S HX  85
DECORAH *      CLOUDY    70  66  88 W6        30.01S
DUBUQUE        PTSUNNY   76  69  79 W6        30.02F
MONTICELLO *   PTSUNNY   79  70  73 W8        30.00S HX  81
OELWEIN *      CLOUDY    73  68  83 W8        30.03S
WATERLOO       CLOUDY    74  66  76 W8        30.00F
$$

IAZ064-065-067-068-078-272200-
   EAST CENTRAL IOWA

CITY           SKY/WX    TMP DP  RH WIND       PRES   REMARKS
DAVENPORT      SUNNY     83  68  60 SW8       30.01S HX  86
IOWA CITY      MOSUNNY   81  69  67 W7        30.01F HX  84
MT. PLEASANT * SUNNY     87  72  61 SW8       30.00S HX  93
MUSCATINE *    SUNNY     84  70  61 W10       30.00S HX  88
QUAD CITIES    MOSUNNY   84  69  60 SW9       29.99F HX  88
$$

IAZ062-063-075>077-085>089-095>099-272200-
   SOUTHEAST IOWA

CITY           SKY/WX    TMP DP  RH WIND       PRES   REMARKS
BURLINGTON     PTSUNNY   85  74  69 SW9       30.00F HX  92
FAIRFIELD *    PTSUNNY   82  72  69 SW6       30.00F HX  87
FORT MADISON *   N/A     84  73  70 S5        30.01S HX  91
KEOKUK *       MOSUNNY   84  73  70 S9        29.99F HX  91
OSKALOOSA *      N/A     82  70  67 CALM      30.00F HX  85
CENTERVILLE *    N/A     82  72  69 CALM      30.03S HX  87
OTTUMWA        PTSUNNY   81  70  69 CALM      29.98F HX  84
WASHINGTON *   MOSUNNY   82  72  69 SW6       30.01F HX  87
$$

ABBREVIATIONS USED IN REMARKS
   TC - TEMPERATURES IN CELSIUS
  WCI - WIND CHILL INDEX
   HX - HEAT INDEX
  VSB - VISIBILITY
$$





USA.gov is the U.S. government's official web portal to all federal, state and local government web resources and services.